BEEAGLESAT (42736 NORAD) Tracking and Keplerian Element Data

This shows tracking and keplerian element data for the satellite.

Feedback or suggestion? Click here.




ElementValue
Catalog42736
NameBEEAGLESAT
Epoch Orbit6518
Epoch Day198.46583367
Epoch Year2018
RAAN204.1749
Inclination51.633
Eccentricity0.0006022
Argument of Perigee354.4334
Mean Anonmoly5.6595
Mean Motion15.6989697
Decay Rate0.00023482
L11 42736U 98067MR 18198.46583367 .00023482 00000-0 19618-3 0 9998
L22 42736 51.6330 204.1749 0006022 354.4334 5.6595 15.69896970 65185

Live tracking and technical data element details for BEEAGLESAT (NORAD 42736). BEEAGLESAT can be tracked NOW for your location showing map with azimuth and elevation plus other details from your city location.

Track the satellite on the map from your city or location and see movement details for azimuth, elevation, latitude, longitude, range, height, and movement on the map or in text.







IsCatalogInMostPopularTable: catalog: 42736, numindb: 99
Update: records affected: 1



GetName: 42736 BEEAGLESAT

Hit Count: updated at: Wed, 18 Jul 2018 20:28:51 GMT